This is the latest recevied weather packets stored in our database for station/object KJ4UBX-11. If no packets are shown the sender has not sent any weather packets the latest 10 day(s).
| Time | Temp. | Humidity | Pressure | Rain* | Wind** | Luminosity | Snow |
|---|---|---|---|---|---|---|---|
| 1777709652 | 6.11° C | 81% | 1012.2 hPa | - | - | - | - |
| 1777709070 | 6.11° C | 80% | 1012.3 hPa | - | - | - | - |
| 1777708486 | 6.11° C | 79% | 1012 hPa | - | - | - | - |
| 1777707903 | 5.56° C | 77% | 1011.8 hPa | - | - | - | - |
| 1777707321 | 6.11° C | 75% | 1011.7 hPa | - | - | - | - |
| 1777706737 | 6.11° C | 78% | 1011.6 hPa | - | - | - | - |
| 1777706155 | 6.11° C | 77% | 1011.5 hPa | - | - | - | - |
| 1777705573 | 5.56° C | 78% | 1011.3 hPa | - | - | - | - |
| 1777704990 | 5.56° C | 79% | 1011.3 hPa | - | - | - | - |
| 1777704406 | 5.56° C | 79% | 1011.2 hPa | - | - | - | - |
| 1777703823 | 5° C | 77% | 1011 hPa | - | - | - | - |
| 1777703241 | 5° C | 79% | 1011.1 hPa | - | - | - | - |
| 1777702657 | 4.44° C | 77% | 1010.9 hPa | - | - | - | - |
| 1777702075 | 4.44° C | 78% | 1010.8 hPa | - | - | - | - |
| 1777701492 | 4.44° C | 74% | 1010.9 hPa | - | - | - | - |
| 1777700910 | 4.44° C | 76% | 1011 hPa | - | - | - | - |
| 1777700327 | 4.44° C | 74% | 1010.9 hPa | - | - | - | - |
| 1777699744 | 4.44° C | 75% | 1010.9 hPa | - | - | - | - |
| 1777699162 | 4.44° C | 74% | 1010.9 hPa | - | - | - | - |
| 1777698579 | 4.44° C | 72% | 1010.8 hPa | - | - | - | - |
| 1777697997 | 5° C | 71% | 1010.8 hPa | - | - | - | - |
| 1777697414 | 5° C | 71% | 1010.9 hPa | - | - | - | - |
| 1777696832 | 5° C | 69% | 1010.8 hPa | - | - | - | - |
| 1777696249 | 5° C | 67% | 1010.8 hPa | - | - | - | - |
| 1777695667 | 5.56° C | 69% | 1010.7 hPa | - | - | - | - |
* Rain since midnight (hover to see other rain measurements)
** Current wind speed in m/s (hover to see current wind gust speed)